Aérodrome :
LOGIN :

S'inscrire | Disclaimer

   EN    FR    IT 

 










Légende :    VFR   VFR Marginal   IFR   IFR Intensif   IFR Très Intensif
Visi : 
Plafond : 
>= 8 km
>= 3000ft
5 à 8 km
1000 à 3000 ft
1500m à 5 km
500 à 1000 ft
800 à 1500m
200 à 500 ft
< 800m
< 200 ft
Symboles :   Orages  Brouillard  Fortes neiges  Fortes précipitations  Vent > 20 kt
SIGMETs :   Divers  Orages  Givrage  Turbulence  Onde Orograph.  Cendres Volcan.






- Altitude de l'aérodrome : 388 ft
- Code IATA : QYR


LFQB - Troyes Barberey

DERNIER METAR :
  • 182330Z AUTO 17008KT 9999 OVC043 03/01 Q1024

METARs EXPIRÉS :
  • 182300Z AUTO 18008KT 9999 OVC043 03/01 Q1024
  • 182230Z AUTO 17008KT 9999 OVC043 03/01 Q1024
  • 182200Z AUTO 18008KT 9999 OVC043 02/00 Q1025
  • 182130Z AUTO 19009KT 9999 OVC044 01/M00 Q1025
  • 182100Z AUTO 19007KT 9999 OVC044 00/M01 Q1025

TAF N/A



MET'MAP, la Météo Aéronautique d'un coup d'oeil ! - Copyright ORBIFLY Décembre 2007 - Disclaimer

ORBIFLY MET'MAP TEAM :

Programmation & Développement : Alexandra Zaïnal
Sur une idée originale de : Baudouin d'Aumeries
Assistance à la programmation : Marc-Olivier Méhu
Soutien technique & logistique : Manuel Goepfert

Contact : metmap@orbifly.com




SOURCES & CREDITS :

   NOAA